Regional Weather Roundup
Issued by NWS

Home | Current Version | Previous Version | Graphics & Text | Print | Product List | Glossary On
Versions: 1 2 3 4 5 6 7 8 9 10 11 12 13 14 15 16 17 18 19 20 21 22 23 24 25 26 27 28 29 30 31 32 33 34 35 36 37 38 39 40 41 42 43 44 45 46 47 48 49 50
124
ASUS43 KLOT 251908
RWRIL

ILLINOIS REGIONAL WEATHER ROUNDUP
NATIONAL WEATHER SERVICE CHICAGO/ROMEOVILLE IL
200 PM CDT TUE APR 25 2017

NOTE: "FAIR" INDICATES FEW OR NO CLOUDS BELOW 12,000 FEET WITH NO
SIGNIFICANT WEATHER AND/OR OBSTRUCTIONS TO VISIBILITY.

* THESE STATIONS ARE NOT UNDER NWS QUALITY CONTROL. THEY ALSO MAY NOT
  REPORT WEATHER SUCH AS PRECIPITATION OR FOG.

ILZ001-002-007-009-015-016-024-252000-
NORTHWEST ILLINOIS

CITY           SKY/WX    TMP DP  RH WIND       PRES   REMARKS
MOLINE         CLOUDY    75  45  34 SE15G24   29.52F
STERLING*      CLOUDY    75  44  33 SE13      29.56F
SAVANNA*       CLOUDY    76  43  31 SE17      29.53F
$$

ILZ003-004-008-010-011-017-018-252000-
NORTH CENTRAL ILLINOIS

CITY           SKY/WX    TMP DP  RH WIND       PRES   REMARKS
ROCKFORD       CLOUDY    73  48  41 S16       29.61F
FREEPORT*      CLOUDY    69  43  39 SE13      29.60F
ROCHELLE*      CLOUDY    72  47  40 SE12      29.59F
DE KALB*       CLOUDY    73  50  44 S17G25    29.62F
PERU*          CLOUDY    73  42  32 S16       29.58F
$$

ILZ005-006-012>014-019>023-252000-
NORTHEAST ILLINOIS

CITY           SKY/WX    TMP DP  RH WIND       PRES   REMARKS
CHICAGO-OHARE  CLOUDY    75  48  38 S16       29.63F
CHICAGO-MIDWAY PTSUNNY   77  48  35 S16G23    29.65S
AURORA         CLOUDY    76  48  37 S16G28    29.62F
LANSING*       MOSUNNY   76  55  47 S10G21    29.66F
JOLIET*        CLOUDY    77  51  39 S14G20    29.62F
WAUKEGAN       MOSUNNY   67  52  58 SE12      29.65F
DUPAGE AIRPORT CLOUDY    74  51  44 S16       29.62F
KANKAKEE*      MOSUNNY   81  52  36 S17       29.65F HX  80
WHEELING       PTSUNNY   75  50  41 S16G23    29.65F
MORRIS*        CLOUDY    78  47  33 S17G24    29.60F
ROMEOVILLE*    CLOUDY    75  54  48 S16G23    29.62F
NORTHERLY ISL    N/A     63  50  62 E8          N/A
$$

LMZ740>746-252000-
SOUTHERN LAKE MICHIGAN

STATION/POSITION SKY/WX   TEMP    WIND        PRES    VSBY  WAVE
                          AIR SEA DIR/SP/G                  HT/PER
                          (F)     (DEG/KT/KT) (MB)    (MI)  (FT/S)
SOUTHERN BUOY              47 41  120/ 10/ 10 1006.2          1/ 3
HARRISON CRIB              60     120/ 19/ 20   N/A
BURNHAM HARBOR             62     100/  4/ 13   N/A
CALUMET HARBOR             74     120/  7/ 11 1003.7F
BURNS HARBOR               76     170/ 10/ 15 1005.1F
MICHIGAN CITY              72     150/ 11/ 15   N/A
ST. JOSEPH                 64 51  160/  8/ 10 1005.1          1
$$

ILZ025>027-034>036-040-047-049-050-058-095>099-252000-
WEST-CENTRAL ILLINOIS

CITY           SKY/WX    TMP DP  RH WIND       PRES   REMARKS
QUINCY         SUNNY     76  48  37 SE20G31   29.48F
GALESBURG*     MOSUNNY   75  44  32 SE12G25   29.50F
MACOMB*        SUNNY     79  43  27 SE21G29   29.53F
JACKSONVILLE*  MOSUNNY   77  46  32 SE21G26   29.53F
PITTSFIELD*    MOSUNNY   79  47  32 SE21G28   29.51F
$$

ILZ028>032-037-038-041>044-048-051>054-059>061-252000-
CENTRAL ILLINOIS

CITY           SKY/WX    TMP DP  RH WIND       PRES   REMARKS
PONTIAC        CLOUDY    78  47  33 S16G22    29.61F
BLOOMINGTON    CLOUDY    74  50  42 S22       29.60F
DECATUR        CLOUDY    75  53  46 S14G23    29.62F
PEORIA         CLOUDY    77  43  29 SE18G30   29.56F
LACON*         CLOUDY    78  47  34 SE20G26   29.56F
LINCOLN*       MOSUNNY   77  48  36 SE23G29   29.57F
SPRINGFIELD    CLOUDY    79  46  31 SE21G36   29.56F
TAYLORVILLE    CLOUDY    77  48  35 SE22G30   29.58F
$$

ILZ033-039-045-046-055>057-062-063-252000-
EAST-CENTRAL ILLINOIS

CITY           SKY/WX    TMP DP  RH WIND       PRES   REMARKS
CHAMPAIGN      SUNNY     81  49  32 S20       29.64F HX  80
RANTOUL*       SUNNY     81  49  33 S17G25    29.64F HX  80
MATTOON        SUNNY     76  57  51 SE17G28   29.65F
PARIS*         SUNNY     78  54  43 SE10G22   29.68F
$$

ILZ079-100>102-252000-
SOUTHWEST ILLINOIS

CITY           SKY/WX    TMP DP  RH WIND       PRES   REMARKS
ALTON          PTSUNNY   77  50  38 S17G26    29.57F
BELLEVILLE     MOSUNNY   78  50  36 SE15G23   29.57F
CAHOKIA*       MOSUNNY   80  50  34 S18G24    29.56F HX  80
SPARTA*        SUNNY     76  52  43 S16G24    29.62F
$$

ILZ064>066-069>071-074>076-080>082-084>086-088>090-092>094-252000-
SOUTH-CENTRAL ILLINOIS

CITY           SKY/WX    TMP DP  RH WIND       PRES   REMARKS
CARBONDALE     SUNNY     75  54  47 S20G25    29.65F
CAIRO*         SUNNY     76  54  45 SE13G18   29.67F
EFFINGHAM*     MOSUNNY   76  56  49 SE13G23   29.67F
MARION         MOSUNNY   77  52  41 SE16      29.67F
MT. VERNON     SUNNY     77  56  48 SE10G18   29.66F
CENTRALIA*     SUNNY     78  56  46 S15G23    29.63F
SALEM*         SUNNY     79  53  40 SE14G22   29.64F
METROPOLIS*    SUNNY     77  54  45 SE7       29.69F
$$

ILZ067-068-072-073-078-083-087-091-252000-
SOUTHEAST ILLINOIS

CITY           SKY/WX    TMP DP  RH WIND       PRES   REMARKS
LAWRENCEVILLE  MOSUNNY   77  55  46 SE15G24   29.69F
FLORA*         SUNNY     78  58  50 S20       29.67F
FAIRFIELD*     SUNNY     76  57  50 S9        29.67F
HARRISBURG*    SUNNY     76  60  56 SE10G17   29.69F
ROBINSON*      SUNNY     77  54  45 S16       29.69F
CARMI*         SUNNY     76  60  57 S14       29.69F
$$

ABBREVIATIONS USED IN REMARKS
   TC - TEMPERATURE IN CELSIUS
  WCI - WIND CHILL INDEX
   HX - HEAT INDEX
  VSB - VISIBILITY
$$





USA.gov is the U.S. government's official web portal to all federal, state and local government web resources and services.